Location: ?????????
(54.7630°N, 39.4991°E)
Time: 06:25:17
(UTC+00:00)

NOSS 2-1 (C) - Pass Details

Date: 14 April 2026
Orbit: 374 x 1679 km, 63.3° (Epoch: 12 May)

Event Time Altitude Azimuth Distance (km) Brightness Sun altitude
Rises 17:13:30 0° 310° (NW) 2,249 8.5 -7.4°
Reaches altitude 10° 17:15:30 10° 320° (NW) 1,422 6.7 -7.7°
Maximum altitude 17:18:20 34° 29° (NNE) 709 3.9 -8.0°
Drops below altitude 10° 17:21:37 10° 97° (E) 1,660 5.2 -8.4°
Enters shadow 17:21:42 10° 97° (E) 1,693 5.2 -8.5°
